16-09-2022, 00:00:08,    320,    0.2,    8.4,   0.00,   0.00, 1013.0,   73.6, -999.0
16-09-2022, 00:00:18,    319,    0.5,    8.5,   0.00,   0.00, 1013.0,   73.7, -999.0
16-09-2022, 00:00:28,    308,    0.9,    8.4,   0.00,   0.00, 1013.1,   73.9, -999.0
16-09-2022, 00:00:38,    307,    0.3,    8.4,   0.00,   0.00, 1013.0,   73.8, -999.0
16-09-2022, 00:00:48,    316,    0.1,    8.4,   0.00,   0.00, 1013.0,   73.6, -999.0
16-09-2022, 00:00:57,    313,    0.8,    8.4,   0.00,   0.00, 1013.0,   73.8, -999.0
16-09-2022, 00:01:08,    314,    0.2,    8.4,   0.00,   0.00, 1013.0,   73.7, -999.0
16-09-2022, 00:01:17,    342,    0.5,    8.4,   0.00,   0.00, 1013.0,   73.7, -999.0
16-09-2022, 00:01:27,    300,    0.4,    8.4,   0.00,   0.00, 1013.0,   73.6, -999.0
16-09-2022, 00:01:38,    300,    0.2,    8.4,   0.00,   0.00, 1013.0,   73.7, -999.0
16-09-2022, 00:01:47,    308,    0.9,    8.4,   0.00,   0.00, 1013.0,   73.9, -999.0
16-09-2022, 00:01:57,    308,    0.7,    8.4,   0.00,   0.00, 1013.0,   73.8, -999.0
16-09-2022, 00:02:07,    308,    1.3,    8.4,   0.00,   0.00, 1013.1,   73.8, -999.0
16-09-2022, 00:02:17,    306,    0.4,    8.4,   0.00,   0.00, 1013.0,   73.6, -999.0
16-09-2022, 00:02:27,    306,    0.0,    8.3,   0.00,   0.00, 1013.0,   73.3, -999.0
16-09-2022, 00:02:37,    306,    0.4,    8.4,   0.00,   0.00, 1013.0,   73.8, -999.0
16-09-2022, 00:02:47,    307,    0.0,    8.4,   0.00,   0.00, 1013.0,   73.7, -999.0
16-09-2022, 00:02:57,    306,    0.0,    8.3,   0.00,   0.00, 1012.9,   73.5, -999.0
16-09-2022, 00:03:07,    307,    0.0,    8.3,   0.00,   0.00, 1012.9,   73.6, -999.0
16-09-2022, 00:03:17,    311,    0.3,    8.4,   0.00,   0.00, 1013.0,   73.9, -999.0
16-09-2022, 00:03:27,    311,    0.4,    8.4,   0.00,   0.00, 1013.0,   73.9, -999.0
16-09-2022, 00:03:37,    312,    1.0,    8.4,   0.00,   0.00, 1013.0,   74.0, -999.0
16-09-2022, 00:03:47,    310,    0.5,    8.3,   0.00,   0.00, 1013.0,   73.9, -999.0
16-09-2022, 00:03:56,    303,    1.0,    8.3,   0.00,   0.00, 1013.0,   73.9, -999.0
16-09-2022, 00:04:07,    336,    1.2,    8.4,   0.00,   0.00, 1013.0,   74.0, -999.0
16-09-2022, 00:04:17,    334,    1.0,    8.3,   0.00,   0.00, 1013.0,   73.9, -999.0
16-09-2022, 00:04:26,    335,    0.5,    8.4,   0.00,   0.00, 1013.0,   74.0, -999.0
16-09-2022, 00:04:36,    334,    0.0,    8.3,   0.00,   0.00, 1012.9,   73.6, -999.0
16-09-2022, 00:04:47,    335,    0.0,    8.2,   0.00,   0.00, 1012.9,   73.5, -999.0
16-09-2022, 00:04:56,    334,    0.0,    8.2,   0.00,   0.00, 1012.9,   73.4, -999.0
16-09-2022, 00:05:06,    334,    0.0,    8.2,   0.00,   0.00, 1012.9,   73.6, -999.0
16-09-2022, 00:05:16,    323,    0.5,    8.3,   0.00,   0.00, 1012.9,   73.7, -999.0
16-09-2022, 00:05:26,    322,    0.8,    8.3,   0.00,   0.00, 1013.0,   74.0, -999.0
16-09-2022, 00:05:36,    322,    0.9,    8.3,   0.00,   0.00, 1013.0,   73.8, -999.0
16-09-2022, 00:05:46,    328,    0.5,    8.2,   0.00,   0.00, 1013.0,   73.9, -999.0
16-09-2022, 00:05:56,    309,    0.5,    8.2,   0.00,   0.00, 1013.0,   73.8, -999.0
16-09-2022, 00:06:06,    308,    0.9,    8.3,   0.00,   0.00, 1013.0,   74.0, -999.0
16-09-2022, 00:06:16,    309,    1.1,    8.3,   0.00,   0.00, 1013.0,   74.1, -999.0
16-09-2022, 00:06:26,    324,    1.8,    8.3,   0.00,   0.00, 1013.0,   74.2, -999.0
16-09-2022, 00:06:36,    328,    1.7,    8.3,   0.00,   0.00, 1013.0,   74.2, -999.0
16-09-2022, 00:06:46,    328,    1.0,    8.3,   0.00,   0.00, 1013.0,   74.3, -999.0
16-09-2022, 00:06:56,    327,    0.8,    8.3,   0.00,   0.00, 1013.0,   74.1, -999.0
16-09-2022, 00:07:05,    352,    0.1,    8.2,   0.00,   0.00, 1012.9,   74.0, -999.0
16-09-2022, 00:07:16,    352,    0.0,    8.2,   0.00,   0.00, 1012.9,   74.0, -999.0
16-09-2022, 00:07:26,    351,    0.1,    8.2,   0.00,   0.00, 1012.9,   74.0, -999.0
16-09-2022, 00:07:35,    335,    0.4,    8.2,   0.00,   0.00, 1012.9,   74.2, -999.0
16-09-2022, 00:07:45,    335,    0.0,    8.2,   0.00,   0.00, 1012.9,   74.0, -999.0
16-09-2022, 00:07:56,    317,    0.8,    8.2,   0.00,   0.00, 1012.9,   74.3, -999.0
16-09-2022, 00:08:05,    317,    1.7,    8.3,   0.00,   0.00, 1013.0,   74.4, -999.0
16-09-2022, 00:08:15,    316,    0.9,    8.3,   0.00,   0.00, 1013.0,   74.5, -999.0
16-09-2022, 00:08:25,    313,    0.5,    8.2,   0.00,   0.00, 1013.0,   74.4, -999.0
16-09-2022, 00:08:35,    309,    1.7,    8.2,   0.00,   0.00, 1013.0,   74.4, -999.0
16-09-2022, 00:08:45,    339,    1.3,    8.3,   0.00,   0.00, 1013.0,   74.5, -999.0
16-09-2022, 00:08:55,    328,    0.9,    8.2,   0.00,   0.00, 1013.0,   74.3, -999.0
16-09-2022, 00:09:05,    330,    2.0,    8.3,   0.00,   0.00, 1013.0,   74.4, -999.0
16-09-2022, 00:09:15,    288,    1.4,    8.2,   0.00,   0.00, 1013.0,   74.5, -999.0
16-09-2022, 00:09:25,    289,    0.5,    8.2,   0.00,   0.00, 1013.0,   74.5, -999.0
16-09-2022, 00:09:35,    288,    0.1,    8.2,   0.00,   0.00, 1012.9,   74.2, -999.0
16-09-2022, 00:09:45,    297,    0.6,    8.2,   0.00,   0.00, 1012.9,   74.3, -999.0
16-09-2022, 00:09:55,    302,    1.2,    8.2,   0.00,   0.00, 1013.0,   74.5, -999.0
16-09-2022, 00:10:05,    308,    0.7,    8.2,   0.00,   0.00, 1013.0,   74.6, -999.0
16-09-2022, 00:10:14,    307,    0.6,    8.2,   0.00,   0.00, 1012.9,   74.5, -999.0
16-09-2022, 00:10:25,    289,    0.9,    8.2,   0.00,   0.00, 1013.0,   74.6, -999.0
16-09-2022, 00:10:35,    289,    0.3,    8.2,   0.00,   0.00, 1012.9,   74.4, -999.0
16-09-2022, 00:10:44,    290,    0.1,    8.1,   0.00,   0.00, 1012.9,   74.5, -999.0
16-09-2022, 00:10:54,    325,    1.4,    8.1,   0.00,   0.00, 1013.0,   74.5, -999.0
16-09-2022, 00:11:04,    321,    2.4,    8.2,   0.00,   0.00, 1013.0,   74.7, -999.0
16-09-2022, 00:11:14,    272,    0.6,    8.2,   0.00,   0.00, 1013.0,   74.7, -999.0
16-09-2022, 00:11:24,    287,    0.2,    8.2,   0.00,   0.00, 1012.9,   74.6, -999.0
16-09-2022, 00:11:34,    325,    1.6,    8.2,   0.00,   0.00, 1013.0,   74.7, -999.0
16-09-2022, 00:11:44,    337,    1.9,    8.2,   0.00,   0.00, 1013.0,   74.8, -999.0
16-09-2022, 00:11:54,    336,    0.7,    8.1,   0.00,   0.00, 1013.0,   74.8, -999.0
16-09-2022, 00:12:04,    336,    0.4,    8.2,   0.00,   0.00, 1013.0,   74.9, -999.0
16-09-2022, 00:12:14,    336,    0.2,    8.2,   0.00,   0.00, 1012.9,   74.6, -999.0
16-09-2022, 00:12:24,    336,    0.0,    8.1,   0.00,   0.00, 1012.9,   74.5, -999.0
16-09-2022, 00:12:34,    330,    1.6,    8.2,   0.00,   0.00, 1013.0,   74.9, -999.0
16-09-2022, 00:12:44,    330,    1.4,    8.2,   0.00,   0.00, 1013.0,   74.9, -999.0
16-09-2022, 00:12:54,    330,    0.0,    8.2,   0.00,   0.00, 1012.9,   74.6, -999.0
16-09-2022, 00:13:04,    330,    0.2,    8.2,   0.00,   0.00, 1013.0,   74.9, -999.0
16-09-2022, 00:13:14,    330,    1.2,    8.2,   0.00,   0.00, 1013.0,   74.9, -999.0
16-09-2022, 00:13:23,    337,    1.5,    8.2,   0.00,   0.00, 1013.0,   74.9, -999.0
16-09-2022, 00:13:34,    329,    0.2,    8.3,   0.00,   0.00, 1013.0,   74.8, -999.0
16-09-2022, 00:13:43,    329,    0.0,    8.1,   0.00,   0.00, 1012.9,   74.5, -999.0
16-09-2022, 00:13:53,    329,    1.1,    8.1,   0.00,   0.00, 1013.0,   74.9, -999.0
16-09-2022, 00:14:03,    321,    1.7,    8.2,   0.00,   0.00, 1013.0,   74.9, -999.0
16-09-2022, 00:14:13,    326,    2.7,    8.2,   0.00,   0.00, 1013.0,   75.0, -999.0
16-09-2022, 00:14:23,    323,    1.3,    8.2,   0.00,   0.00, 1013.0,   75.0, -999.0
16-09-2022, 00:14:33,    313,    1.3,    8.2,   0.00,   0.00, 1013.0,   75.0, -999.0
16-09-2022, 00:14:43,    312,    0.0,    8.1,   0.00,   0.00, 1012.9,   74.6, -999.0
16-09-2022, 00:14:53,    312,    0.3,    8.1,   0.00,   0.00, 1013.0,   75.1, -999.0
16-09-2022, 00:15:03,    322,    0.5,    8.2,   0.00,   0.00, 1013.0,   75.0, -999.0
16-09-2022, 00:15:13,    321,    0.0,    8.1,   0.00,   0.00, 1012.9,   74.7, -999.0
16-09-2022, 00:15:23,    321,    0.0,    8.0,   0.00,   0.00, 1012.9,   74.7, -999.0
16-09-2022, 00:15:33,    315,    0.6,    8.1,   0.00,   0.00, 1012.9,   74.7, -999.0
16-09-2022, 00:15:43,    298,    1.9,    8.2,   0.00,   0.00, 1013.0,   75.0, -999.0
16-09-2022, 00:15:53,    294,    0.9,    8.2,   0.00,   0.00, 1013.0,   75.1, -999.0
16-09-2022, 00:16:03,    298,    0.5,    8.3,   0.00,   0.00, 1013.0,   75.0, -999.0
16-09-2022, 00:16:13,    301,    0.8,    8.2,   0.00,   0.00, 1013.0,   75.1, -999.0
16-09-2022, 00:16:22,    301,    0.3,    8.2,   0.00,   0.00, 1013.0,   75.0, -999.0
16-09-2022, 00:16:32,    301,    0.3,    8.2,   0.00,   0.00, 1013.0,   75.0, -999.0
16-09-2022, 00:16:43,    325,    1.5,    8.2,   0.00,   0.00, 1013.0,   75.1, -999.0
16-09-2022, 00:16:52,    324,    1.5,    8.3,   0.00,   0.00, 1013.0,   75.1, -999.0
16-09-2022, 00:17:02,    322,    1.6,    8.2,   0.00,   0.00, 1013.0,   75.1, -999.0
16-09-2022, 00:17:13,    320,    0.7,    8.2,   0.00,   0.00, 1013.0,   75.1, -999.0
16-09-2022, 00:17:22,    309,    1.5,    8.2,   0.00,   0.00, 1013.0,   75.1, -999.0
16-09-2022, 00:17:32,    324,    1.0,    8.2,   0.00,   0.00, 1013.0,   75.1, -999.0
16-09-2022, 00:17:42,    323,    0.2,    8.2,   0.00,   0.00, 1013.0,   74.9, -999.0
16-09-2022, 00:17:52,    323,    0.2,    8.1,   0.00,   0.00, 1012.9,   74.9, -999.0
16-09-2022, 00:18:02,    300,    0.9,    8.2,   0.00,   0.00, 1013.0,   75.0, -999.0
16-09-2022, 00:18:12,    298,    0.7,    8.2,   0.00,   0.00, 1013.0,   75.0, -999.0
16-09-2022, 00:18:22,    298,    0.0,    8.1,   0.00,   0.00, 1012.9,   74.7, -999.0
16-09-2022, 00:18:32,    298,    0.0,    8.1,   0.00,   0.00, 1012.9,   74.8, -999.0
16-09-2022, 00:18:42,    302,    0.1,    8.1,   0.00,   0.00, 1012.9,   74.8, -999.0
16-09-2022, 00:18:52,    297,    1.2,    8.2,   0.00,   0.00, 1013.0,   75.1, -999.0
16-09-2022, 00:19:01,    297,    0.2,    8.2,   0.00,   0.00, 1013.0,   75.0, -999.0
16-09-2022, 00:19:12,    308,    1.8,    8.2,   0.00,   0.00, 1013.0,   75.1, -999.0
16-09-2022, 00:19:22,    326,    1.6,    8.2,   0.00,   0.00, 1013.0,   75.2, -999.0
16-09-2022, 00:19:31,    269,    1.1,    8.2,   0.00,   0.00, 1013.0,   75.2, -999.0
16-09-2022, 00:19:42,    296,    0.9,    8.2,   0.00,   0.00, 1013.0,   75.2, -999.0
16-09-2022, 00:19:52,    300,    0.5,    8.2,   0.00,   0.00, 1013.0,   75.0, -999.0
16-09-2022, 00:20:01,    330,    1.6,    8.2,   0.00,   0.00, 1013.0,   75.2, -999.0
16-09-2022, 00:20:11,    308,    1.4,    8.2,   0.00,   0.00, 1013.0,   75.2, -999.0
16-09-2022, 00:20:21,    317,    2.0,    8.2,   0.00,   0.00, 1013.0,   75.2, -999.0
16-09-2022, 00:20:31,    316,    1.5,    8.2,   0.00,   0.00, 1013.0,   75.2, -999.0
16-09-2022, 00:20:41,    316,    0.1,    8.0,   0.00,   0.00, 1013.0,   75.0, -999.0
16-09-2022, 00:20:51,    316,    0.0,    8.0,   0.00,   0.00, 1012.9,   74.8, -999.0
16-09-2022, 00:21:01,    316,    0.0,    8.0,   0.00,   0.00, 1013.0,   74.8, -999.0
16-09-2022, 00:21:11,    316,    0.0,    8.0,   0.00,   0.00, 1012.9,   74.8, -999.0
16-09-2022, 00:21:21,    318,    0.1,    8.1,   0.00,   0.00, 1013.0,   75.1, -999.0
16-09-2022, 00:21:31,    321,    0.8,    8.2,   0.00,   0.00, 1013.0,   75.3, -999.0
16-09-2022, 00:21:41,    325,    0.4,    8.2,   0.00,   0.00, 1013.0,   75.2, -999.0
16-09-2022, 00:21:51,    323,    1.2,    8.2,   0.00,   0.00, 1013.0,   75.4, -999.0
16-09-2022, 00:22:01,    322,    1.4,    8.2,   0.00,   0.00, 1013.0,   75.4, -999.0
16-09-2022, 00:22:11,    323,    1.4,    8.2,   0.00,   0.00, 1013.0,   75.4, -999.0
16-09-2022, 00:22:21,    328,    0.6,    8.2,   0.00,   0.00, 1013.0,   75.2, -999.0
16-09-2022, 00:22:31,    319,    0.4,    8.2,   0.00,   0.00, 1013.0,   75.3, -999.0
16-09-2022, 00:22:40,    319,    0.7,    8.1,   0.00,   0.00, 1013.0,   75.4, -999.0
16-09-2022, 00:22:51,    315,    0.8,    8.2,   0.00,   0.00, 1013.0,   75.4, -999.0
16-09-2022, 00:23:01,    305,    1.9,    8.2,   0.00,   0.00, 1013.0,   75.4, -999.0
16-09-2022, 00:23:10,    306,    2.1,    8.2,   0.00,   0.00, 1013.0,   75.5, -999.0
16-09-2022, 00:23:20,    307,    0.5,    8.2,   0.00,   0.00, 1013.0,   75.4, -999.0
16-09-2022, 00:23:30,    311,    0.5,    8.2,   0.00,   0.00, 1013.0,   75.4, -999.0
16-09-2022, 00:23:40,    311,    0.2,    8.2,   0.00,   0.00, 1013.0,   75.2, -999.0
16-09-2022, 00:23:50,    311,    0.3,    8.2,   0.00,   0.00, 1013.0,   75.3, -999.0
16-09-2022, 00:24:00,    280,    0.7,    8.2,   0.00,   0.00, 1013.0,   75.4, -999.0
16-09-2022, 00:24:10,    280,    0.0,    8.0,   0.00,   0.00, 1013.0,   75.1, -999.0
16-09-2022, 00:24:20,    280,    0.0,    8.1,   0.00,   0.00, 1012.9,   75.0, -999.0
16-09-2022, 00:24:30,    303,    0.4,    8.1,   0.00,   0.00, 1013.0,   75.3, -999.0
16-09-2022, 00:24:40,    308,    2.3,    8.2,   0.00,   0.00, 1013.0,   75.4, -999.0
16-09-2022, 00:24:50,    313,    2.0,    8.2,   0.00,   0.00, 1013.0,   75.4, -999.0
16-09-2022, 00:25:00,    314,    1.6,    8.2,   0.00,   0.00, 1013.0,   75.5, -999.0
16-09-2022, 00:25:10,    300,    1.0,    8.2,   0.00,   0.00, 1013.0,   75.4, -999.0
16-09-2022, 00:25:20,    303,    0.2,    8.1,   0.00,   0.00, 1013.0,   75.3, -999.0
16-09-2022, 00:25:30,    303,    0.1,    8.2,   0.00,   0.00, 1013.0,   75.2, -999.0
16-09-2022, 00:25:40,    317,    0.5,    8.1,   0.00,   0.00, 1013.0,   75.3, -999.0
16-09-2022, 00:25:49,    317,    1.4,    8.2,   0.00,   0.00, 1013.1,   75.4, -999.0
16-09-2022, 00:26:00,    325,    1.3,    8.2,   0.00,   0.00, 1013.0,   75.4, -999.0
16-09-2022, 00:26:09,    323,    1.4,    8.2,   0.00,   0.00, 1013.0,   75.5, -999.0
16-09-2022, 00:26:19,    323,    0.8,    8.2,   0.00,   0.00, 1013.0,   75.5, -999.0
16-09-2022, 00:26:29,    322,    0.3,    8.1,   0.00,   0.00, 1013.1,   75.4, -999.0
16-09-2022, 00:26:39,    322,    0.5,    8.1,   0.00,   0.00, 1013.0,   75.4, -999.0
16-09-2022, 00:26:49,    323,    0.0,    8.1,   0.00,   0.00, 1012.9,   75.1, -999.0
16-09-2022, 00:26:59,    323,    0.0,    8.1,   0.00,   0.00, 1013.0,   75.1, -999.0
16-09-2022, 00:27:09,    322,    0.4,    8.1,   0.00,   0.00, 1013.0,   75.3, -999.0
16-09-2022, 00:27:19,    325,    1.0,    8.2,   0.00,   0.00, 1013.1,   75.4, -999.0
16-09-2022, 00:27:29,    323,    0.2,    8.2,   0.00,   0.00, 1013.0,   75.4, -999.0
16-09-2022, 00:27:39,    322,    0.4,    8.2,   0.00,   0.00, 1013.0,   75.4, -999.0
16-09-2022, 00:27:49,    323,    0.6,    8.2,   0.00,   0.00, 1013.1,   75.6, -999.0
16-09-2022, 00:27:59,    322,    0.0,    8.2,   0.00,   0.00, 1013.0,   75.2, -999.0
16-09-2022, 00:28:09,    322,    1.2,    8.1,   0.00,   0.00, 1013.0,   75.5, -999.0
16-09-2022, 00:28:19,    306,    0.9,    8.2,   0.00,   0.00, 1013.0,   75.5, -999.0
16-09-2022, 00:28:29,    319,    1.4,    8.2,   0.00,   0.00, 1013.1,   75.4, -999.0
16-09-2022, 00:28:39,    310,    1.1,    8.2,   0.00,   0.00, 1013.1,   75.5, -999.0
16-09-2022, 00:28:48,    310,    1.0,    8.3,   0.00,   0.00, 1013.1,   75.4, -999.0
16-09-2022, 00:28:58,    310,    0.5,    8.3,   0.00,   0.00, 1013.1,   75.4, -999.0
16-09-2022, 00:29:09,    308,    0.2,    8.2,   0.00,   0.00, 1013.0,   75.3, -999.0
16-09-2022, 00:29:18,    307,    0.2,    8.2,   0.00,   0.00, 1013.0,   75.3, -999.0
16-09-2022, 00:29:28,    317,    1.2,    8.2,   0.00,   0.00, 1013.1,   75.4, -999.0
16-09-2022, 00:29:38,    342,    0.7,    8.2,   0.00,   0.00, 1013.0,   75.4, -999.0
16-09-2022, 00:29:48,    341,    0.0,    8.2,   0.00,   0.00, 1013.0,   75.3, -999.0
16-09-2022, 00:29:58,    342,    0.0,    8.2,   0.00,   0.00, 1013.0,   75.1, -999.0
16-09-2022, 00:30:08,    342,    0.2,    8.3,   0.00,   0.00, 1013.0,   75.3, -999.0
16-09-2022, 00:30:18,    341,    0.0,    8.3,   0.00,   0.00, 1013.0,   75.1, -999.0
16-09-2022, 00:30:28,    326,    0.2,    8.3,   0.00,   0.00, 1013.0,   75.2, -999.0
16-09-2022, 00:30:38,    325,    0.9,    8.3,   0.00,   0.00, 1013.1,   75.4, -999.0
16-09-2022, 00:30:48,    326,    0.6,    8.3,   0.00,   0.00, 1013.1,   75.3, -999.0
16-09-2022, 00:30:58,    326,    0.4,    8.3,   0.00,   0.00, 1013.1,   75.4, -999.0
16-09-2022, 00:31:08,    325,    0.0,    8.2,   0.00,   0.00, 1013.0,   74.9, -999.0
16-09-2022, 00:31:18,    326,    0.0,    8.2,   0.00,   0.00, 1012.9,   74.9, -999.0
16-09-2022, 00:31:27,    326,    0.1,    8.2,   0.00,   0.00, 1013.0,   75.0, -999.0
16-09-2022, 00:31:38,    325,    0.0,    8.3,   0.00,   0.00, 1013.0,   75.0, -999.0
16-09-2022, 00:31:48,    326,    0.0,    8.2,   0.00,   0.00, 1013.0,   74.8, -999.0
16-09-2022, 00:31:57,    311,    0.6,    8.2,   0.00,   0.00, 1013.0,   75.1, -999.0
16-09-2022, 00:32:08,    311,    0.3,    8.3,   0.00,   0.00, 1013.0,   75.2, -999.0
16-09-2022, 00:32:18,    310,    0.0,    8.2,   0.00,   0.00, 1013.0,   75.0, -999.0
16-09-2022, 00:32:27,    317,    1.5,    8.3,   0.00,   0.00, 1013.1,   75.3, -999.0
16-09-2022, 00:32:37,    317,    0.7,    8.3,   0.00,   0.00, 1013.1,   75.3, -999.0
16-09-2022, 00:32:47,    317,    0.7,    8.3,   0.00,   0.00, 1013.1,   75.3, -999.0
16-09-2022, 00:32:57,    320,    1.2,    8.3,   0.00,   0.00, 1013.1,   75.4, -999.0
16-09-2022, 00:33:07,    305,    0.8,    8.3,   0.00,   0.00, 1013.1,   75.4, -999.0
16-09-2022, 00:33:17,    305,    0.7,    8.3,   0.00,   0.00, 1013.1,   75.4, -999.0
16-09-2022, 00:33:27,    304,    0.1,    8.3,   0.00,   0.00, 1013.0,   75.2, -999.0
16-09-2022, 00:33:37,    304,    0.1,    8.2,   0.00,   0.00, 1013.0,   75.2, -999.0
16-09-2022, 00:33:47,    311,    0.3,    8.1,   0.00,   0.00, 1013.0,   75.2, -999.0
16-09-2022, 00:33:57,    311,    1.8,    8.3,   0.00,   0.00, 1013.1,   75.4, -999.0
16-09-2022, 00:34:07,    313,    1.0,    8.3,   0.00,   0.00, 1013.1,   75.5, -999.0
16-09-2022, 00:34:17,    320,    1.7,    8.3,   0.00,   0.00, 1013.1,   75.5, -999.0
16-09-2022, 00:34:27,    321,    1.7,    8.3,   0.00,   0.00, 1013.1,   75.5, -999.0
16-09-2022, 00:34:36,    320,    1.1,    8.3,   0.00,   0.00, 1013.1,   75.4, -999.0
16-09-2022, 00:34:47,    320,    0.0,    8.2,   0.00,   0.00, 1013.0,   75.1, -999.0
16-09-2022, 00:34:57,    319,    0.6,    8.3,   0.00,   0.00, 1013.1,   75.5, -999.0
16-09-2022, 00:35:06,    318,    0.7,    8.4,   0.00,   0.00, 1013.1,   75.4, -999.0
16-09-2022, 00:35:17,    315,    1.3,    8.3,   0.00,   0.00, 1013.1,   75.4, -999.0
16-09-2022, 00:35:26,    310,    1.2,    8.3,   0.00,   0.00, 1013.1,   75.5, -999.0
16-09-2022, 00:35:36,    310,    1.0,    8.4,   0.00,   0.00, 1013.1,   75.4, -999.0
16-09-2022, 00:35:46,    310,    0.5,    8.3,   0.00,   0.00, 1013.1,   75.4, -999.0
16-09-2022, 00:35:57,    310,    0.5,    8.3,   0.00,   0.00, 1013.1,   75.3, -999.0
16-09-2022, 00:36:06,    310,    0.1,    8.3,   0.00,   0.00, 1013.0,   75.2, -999.0
16-09-2022, 00:36:16,    310,    0.0,    8.2,   0.00,   0.00, 1013.0,   75.1, -999.0
16-09-2022, 00:36:26,    310,    0.1,    8.2,   0.00,   0.00, 1013.0,   75.1, -999.0
16-09-2022, 00:36:36,    339,    0.6,    8.3,   0.00,   0.00, 1013.1,   75.4, -999.0
16-09-2022, 00:36:46,    324,    1.5,    8.4,   0.00,   0.00, 1013.1,   75.4, -999.0
16-09-2022, 00:36:56,    324,    0.5,    8.4,   0.00,   0.00, 1013.1,   75.4, -999.0
16-09-2022, 00:37:06,    324,    0.0,    8.2,   0.00,   0.00, 1013.0,   75.0, -999.0
16-09-2022, 00:37:16,    323,    0.9,    8.3,   0.00,   0.00, 1013.1,   75.4, -999.0
16-09-2022, 00:37:26,    326,    0.6,    8.4,   0.00,   0.00, 1013.1,   75.3, -999.0
16-09-2022, 00:37:36,    326,    0.2,    8.3,   0.00,   0.00, 1013.0,   75.3, -999.0
16-09-2022, 00:37:46,    326,    0.5,    8.4,   0.00,   0.00, 1013.1,   75.3, -999.0
16-09-2022, 00:37:56,    326,    0.9,    8.4,   0.00,   0.00, 1013.1,   75.3, -999.0
16-09-2022, 00:38:05,    326,    0.5,    8.4,   0.00,   0.00, 1013.1,   75.5, -999.0
16-09-2022, 00:38:15,    326,    0.1,    8.4,   0.00,   0.00, 1013.1,   75.2, -999.0
16-09-2022, 00:38:26,    325,    0.0,    8.3,   0.00,   0.00, 1013.0,   75.0, -999.0
16-09-2022, 00:38:35,    326,    0.0,    8.3,   0.00,   0.00, 1013.0,   74.9, -999.0
16-09-2022, 00:38:45,    325,    0.0,    8.3,   0.00,   0.00, 1013.0,   74.9, -999.0
16-09-2022, 00:38:55,    326,    0.0,    8.3,   0.00,   0.00, 1013.0,   75.0, -999.0
16-09-2022, 00:39:05,    326,    0.1,    8.4,   0.00,   0.00, 1013.0,   75.1, -999.0
16-09-2022, 00:39:15,    326,    0.2,    8.3,   0.00,   0.00, 1013.0,   75.0, -999.0
16-09-2022, 00:39:25,    326,    0.6,    8.4,   0.00,   0.00, 1013.1,   75.2, -999.0
16-09-2022, 00:39:35,    325,    0.2,    8.4,   0.00,   0.00, 1013.0,   75.1, -999.0
16-09-2022, 00:39:45,    325,    0.0,    8.3,   0.00,   0.00, 1013.0,   74.9, -999.0
16-09-2022, 00:39:55,    295,    0.6,    8.4,   0.00,   0.00, 1013.0,   75.1, -999.0
16-09-2022, 00:40:05,    302,    1.3,    8.4,   0.00,   0.00, 1013.1,   75.2, -999.0
16-09-2022, 00:40:15,    302,    0.3,    8.4,   0.00,   0.00, 1013.0,   74.9, -999.0
16-09-2022, 00:40:25,    321,    0.8,    8.4,   0.00,   0.00, 1013.0,   75.2, -999.0
16-09-2022, 00:40:35,    313,    1.6,    8.4,   0.00,   0.00, 1013.1,   75.2, -999.0
16-09-2022, 00:40:44,    324,    1.7,    8.5,   0.00,   0.00, 1013.1,   75.3, -999.0
16-09-2022, 00:40:55,    321,    1.0,    8.4,   0.00,   0.00, 1013.1,   75.2, -999.0
16-09-2022, 00:41:05,    320,    0.7,    8.4,   0.00,   0.00, 1013.1,   75.2, -999.0
16-09-2022, 00:41:14,    321,    0.3,    8.4,   0.00,   0.00, 1013.0,   75.0, -999.0
16-09-2022, 00:41:25,    321,    0.0,    8.3,   0.00,   0.00, 1013.0,   74.8, -999.0
16-09-2022, 00:41:35,    320,    0.1,    8.3,   0.00,   0.00, 1013.0,   75.2, -999.0
16-09-2022, 00:41:44,    321,    0.2,    8.4,   0.00,   0.00, 1013.1,   75.1, -999.0
16-09-2022, 00:41:54,    320,    0.3,    8.4,   0.00,   0.00, 1013.0,   75.2, -999.0
16-09-2022, 00:42:04,    292,    0.3,    8.4,   0.00,   0.00, 1013.1,   75.2, -999.0
16-09-2022, 00:42:14,    282,    0.3,    8.4,   0.00,   0.00, 1013.0,   75.1, -999.0
16-09-2022, 00:42:24,    322,    0.5,    8.4,   0.00,   0.00, 1013.1,   75.2, -999.0
16-09-2022, 00:42:34,    322,    0.8,    8.4,   0.00,   0.00, 1013.1,   75.2, -999.0
16-09-2022, 00:42:44,    302,    2.0,    8.3,   0.00,   0.00, 1013.1,   75.3, -999.0
16-09-2022, 00:42:54,    318,    1.6,    8.5,   0.00,   0.00, 1013.1,   75.3, -999.0
16-09-2022, 00:43:04,    317,    0.7,    8.5,   0.00,   0.00, 1013.1,   75.2, -999.0
16-09-2022, 00:43:14,    289,    0.6,    8.4,   0.00,   0.00, 1013.1,   75.2, -999.0
16-09-2022, 00:43:24,    283,    0.6,    8.4,   0.00,   0.00, 1013.1,   75.2, -999.0
16-09-2022, 00:43:34,    283,    0.2,    8.4,   0.00,   0.00, 1013.0,   75.0, -999.0
16-09-2022, 00:43:44,    283,    0.3,    8.5,   0.00,   0.00, 1013.0,   75.0, -999.0
16-09-2022, 00:43:54,    320,    0.7,    8.5,   0.00,   0.00, 1013.1,   75.1, -999.0
16-09-2022, 00:44:04,    306,    0.0,    8.5,   0.00,   0.00, 1013.0,   74.9, -999.0
16-09-2022, 00:44:14,    306,    0.0,    8.4,   0.00,   0.00, 1013.0,   74.9, -999.0
16-09-2022, 00:44:23,    307,    0.0,    8.4,   0.00,   0.00, 1013.0,   74.7, -999.0
16-09-2022, 00:44:34,    307,    0.0,    8.4,   0.00,   0.00, 1013.0,   74.8, -999.0
16-09-2022, 00:44:43,    306,    0.0,    8.4,   0.00,   0.00, 1013.0,   74.7, -999.0
16-09-2022, 00:44:53,    307,    0.0,    8.4,   0.00,   0.00, 1013.0,   74.7, -999.0
16-09-2022, 00:45:03,    307,    0.0,    8.4,   0.00,   0.00, 1013.0,   74.7, -999.0
16-09-2022, 00:45:13,    307,    0.2,    8.4,   0.00,   0.00, 1013.0,   75.0, -999.0
16-09-2022, 00:45:23,    312,    0.6,    8.4,   0.00,   0.00, 1013.1,   75.1, -999.0
16-09-2022, 00:45:33,    328,    1.4,    8.4,   0.00,   0.00, 1013.1,   75.1, -999.0
16-09-2022, 00:45:43,    329,    0.6,    8.4,   0.00,   0.00, 1013.1,   75.1, -999.0
16-09-2022, 00:45:53,    301,    0.3,    8.4,   0.00,   0.00, 1013.1,   75.0, -999.0
16-09-2022, 00:46:03,    301,    0.5,    8.4,   0.00,   0.00, 1013.1,   75.1, -999.0
16-09-2022, 00:46:13,    301,    0.7,    8.5,   0.00,   0.00, 1013.1,   75.1, -999.0
16-09-2022, 00:46:23,    306,    0.8,    8.5,   0.00,   0.00, 1013.1,   75.0, -999.0
16-09-2022, 00:46:33,    307,    0.3,    8.4,   0.00,   0.00, 1013.1,   75.0, -999.0
16-09-2022, 00:46:43,    307,    0.0,    8.4,   0.00,   0.00, 1013.0,   74.7, -999.0